Un Karadeniz — TCTD3 — position and weather

sailwx.info

Track history (hours):
 
Tides and Currents Weather Stations Pressure Air Temp Water Temp Dewpoint Dewpoint Depression Visibility Wind Speed Wind Dir Waves Ship Positions

Un Karadeniz

Last reported at 2014-Oct-28 07:33 UTC. Time now 2014-Oct-31 09:58 UTC.
Position N 36°37' E 023°25'.

Length 193 m; draft 6.5 m.

Type: Ship (hazmat cat A). MMSI: 271002571.

Date/timePositionNaut miles runAvg speedWind from/ knotsBaromVisibWave heightAir tempDewpointWater temp
2014-Oct-28 07:33N 36°37' E 023°25'1919.4
2014-Oct-28 06:33N 36°52' E 023°40'1919.2
2014-Oct-28 05:33N 37°07' E 023°55'1918.9
2014-Oct-28 04:33N 37°22' E 024°10'1919.2
2014-Oct-28 03:34N 37°37' E 024°26'1919.1
2014-Oct-28 02:33N 37°54' E 024°37'2019.9
2014-Oct-28 01:33N 38°12' E 024°48'16616.5
2014-Oct-27 15:27N 40°26' E 026°55'110 5.0
2014-Oct-26 17:33N 40°51' E 029°16'0 0.0
2014-Oct-26 16:32N 40°51' E 029°16'0 0.0
2014-Oct-26 15:29N 40°51' E 029°16'0 0.0
2014-Oct-26 14:33N 40°51' E 029°16'0 0.0
2014-Oct-26 13:33N 40°51' E 029°16'4 4.3
2014-Oct-26 12:33N 40°50' E 029°11'1818.2
2014-Oct-26 11:33N 40°50' E 028°47'26016.0
2014-Oct-25 19:18N 37°55' E 024°37'1418.6
2014-Oct-25 18:33N 37°43' E 024°29'1818.2
2014-Oct-25 17:33N 37°28' E 024°16'4118.3
2014-Oct-25 15:20N 36°56' E 023°44'  
2014-Oct-20 17:08N 36°47' E 023°34'1220.3
2014-Oct-20 16:32N 36°56' E 023°44'2019.7
2014-Oct-20 15:33N 37°11' E 023°60'1919.4
2014-Oct-20 14:33N 37°26' E 024°15'2020.0
2014-Oct-20 13:33N 37°42' E 024°29'4120.1
2014-Oct-20 11:31N 38°19' E 024°52'2719.6
2014-Oct-20 10:08N 38°44' E 025°08'5319.4
2014-Oct-20 07:25N 39°30' E 025°39'2219.3
2014-Oct-20 06:17N 39°50' E 025°51'13217.0
2014-Oct-19 22:32N 40°51' E 028°25'1919.3
2014-Oct-19 21:33N 40°53' E 028°50'1818.5
2014-Oct-19 20:33N 40°51' E 029°14'2 1.8
2014-Oct-19 19:34N 40°51' E 029°16'0 0.0
2014-Oct-19 18:33N 40°51' E 029°16'0 0.0
2014-Oct-19 17:33N 40°51' E 029°16'0 0.0
2014-Oct-19 16:29N 40°51' E 029°16'0 0.0
2014-Oct-19 15:32N 40°51' E 029°16'0 0.0
2014-Oct-19 14:31N 40°51' E 029°16'0 0.0
2014-Oct-19 13:31N 40°51' E 029°16'0 0.0
2014-Oct-19 12:34N 40°51' E 029°16'4 3.5
2014-Oct-19 11:33N 40°50' E 029°12'1817.6
2014-Oct-19 10:33N 40°49' E 028°48'9117.7
2014-Oct-19 05:23N 40°28' E 026°51'5714.7
2014-Oct-19 01:29N 39°52' E 025°52'14318.0
2014-Oct-18 17:33N 37°45' E 024°31'1917.7
2014-Oct-18 16:30N 37°29' E 024°18'2718.9
2014-Oct-18 15:04N 37°08' E 023°56'918.4
2014-Oct-18 14:33N 37°01' E 023°49'1818.3
2014-Oct-18 13:33N 36°47' E 023°34'3717.4
2014-Oct-18 11:26N 36°24' E 022°57'2319.0
2014-Oct-18 10:15N 36°22' E 022°29'  
Track history (hours):
 
Tides and Currents Weather Stations Pressure Air Temp Water Temp Dewpoint Dewpoint Depression Visibility Wind Speed Wind Dir Waves Ship Positions

Un Karadeniz

Last reported at 2014-Oct-28 07:33 UTC. Time now 2014-Oct-31 09:58 UTC.
Position N 36°37' E 023°25'.

Length 193 m; draft 6.5 m.

Type: Ship (hazmat cat A). MMSI: 271002571.

Date/timePositionNaut miles runAvg speedWind from/ knotsBaromVisibWave heightAir tempDewpointWater temp
2014-Oct-28 07:33N 36°37' E 023°25'1919.4
2014-Oct-28 06:33N 36°52' E 023°40'1919.2
2014-Oct-28 05:33N 37°07' E 023°55'1918.9
2014-Oct-28 04:33N 37°22' E 024°10'1919.2
2014-Oct-28 03:34N 37°37' E 024°26'1919.1
2014-Oct-28 02:33N 37°54' E 024°37'2019.9
2014-Oct-28 01:33N 38°12' E 024°48'16616.5
2014-Oct-27 15:27N 40°26' E 026°55'110 5.0
2014-Oct-26 17:33N 40°51' E 029°16'0 0.0
2014-Oct-26 16:32N 40°51' E 029°16'0 0.0
2014-Oct-26 15:29N 40°51' E 029°16'0 0.0
2014-Oct-26 14:33N 40°51' E 029°16'0 0.0
2014-Oct-26 13:33N 40°51' E 029°16'4 4.3
2014-Oct-26 12:33N 40°50' E 029°11'1818.2
2014-Oct-26 11:33N 40°50' E 028°47'26016.0
2014-Oct-25 19:18N 37°55' E 024°37'1418.6
2014-Oct-25 18:33N 37°43' E 024°29'1818.2
2014-Oct-25 17:33N 37°28' E 024°16'4118.3
2014-Oct-25 15:20N 36°56' E 023°44'  
2014-Oct-20 17:08N 36°47' E 023°34'1220.3
2014-Oct-20 16:32N 36°56' E 023°44'2019.7
2014-Oct-20 15:33N 37°11' E 023°60'1919.4
2014-Oct-20 14:33N 37°26' E 024°15'2020.0
2014-Oct-20 13:33N 37°42' E 024°29'4120.1
2014-Oct-20 11:31N 38°19' E 024°52'2719.6
2014-Oct-20 10:08N 38°44' E 025°08'5319.4
2014-Oct-20 07:25N 39°30' E 025°39'2219.3
2014-Oct-20 06:17N 39°50' E 025°51'13217.0
2014-Oct-19 22:32N 40°51' E 028°25'1919.3
2014-Oct-19 21:33N 40°53' E 028°50'1818.5
2014-Oct-19 20:33N 40°51' E 029°14'2 1.8
2014-Oct-19 19:34N 40°51' E 029°16'0 0.0
2014-Oct-19 18:33N 40°51' E 029°16'0 0.0
2014-Oct-19 17:33N 40°51' E 029°16'0 0.0
2014-Oct-19 16:29N 40°51' E 029°16'0 0.0
2014-Oct-19 15:32N 40°51' E 029°16'0 0.0
2014-Oct-19 14:31N 40°51' E 029°16'0 0.0
2014-Oct-19 13:31N 40°51' E 029°16'0 0.0
2014-Oct-19 12:34N 40°51' E 029°16'4 3.5
2014-Oct-19 11:33N 40°50' E 029°12'1817.6
2014-Oct-19 10:33N 40°49' E 028°48'9117.7
2014-Oct-19 05:23N 40°28' E 026°51'5714.7
2014-Oct-19 01:29N 39°52' E 025°52'14318.0
2014-Oct-18 17:33N 37°45' E 024°31'1917.7
2014-Oct-18 16:30N 37°29' E 024°18'2718.9
2014-Oct-18 15:04N 37°08' E 023°56'918.4
2014-Oct-18 14:33N 37°01' E 023°49'1818.3
2014-Oct-18 13:33N 36°47' E 023°34'3717.4
2014-Oct-18 11:26N 36°24' E 022°57'2319.0
2014-Oct-18 10:15N 36°22' E 022°29'  

Dump ship's entire track history